Regional Weather Roundup
Issued by NWS State College, PA

Home | Current Version | Previous Version | Graphics & Text | Print | Product List | Glossary Off
Versions: 1 2 3 4 5 6 7 8 9 10 11 12 13 14 15 16 17 18 19 20 21 22 23 24 25 26 27 28 29 30 31 32 33 34 35 36 37 38 39 40 41 42 43 44 45 46 47 48 49 50

000
ASUS41 KCTP 202310
RWRCTP

REGIONAL WEATHER ROUNDUP
NATIONAL WEATHER SERVICE STATE COLLEGE PA
600 PM EST THU NOV 20 2014

Note: "fair" indicates few or no clouds below 12,000 feet with no
significant weather and/or obstructions to visibility.

* = STATION THAT DOES NOT REPORT PRECIPITATION /E.G. RAIN...SNOW...ETC/
    THUNDER OR FOG.

PAZ002>004-007>009-013>016-020>023-029>032-210000-
WESTERN PENNSYLVANIA

CITY           SKY/WX    TMP DP  RH WIND       PRES   REMARKS
ERIE           SNOW      23  17  78 SW20G30   29.97R VSB 1/2 WCI   8
MEADVILLE      MOCLDY    22   9  57 SW12G24   29.96R WCI  10
FRANKLIN*      CLOUDY    21  10  63 W15       29.98R WCI   8
NEW CASTLE     FLURRIES  24  13  63 SW8       30.04R
BEAVER COUNTY  CLOUDY    25  14  63 SW10G16   30.02R WCI  15
BUTLER*        MOCLDY    25   9  50 SW12G21   30.03R WCI  14
PITTSBURGH INT PTCLDY    25  10  53 W12G21    30.03R WCI  14
PITTSBURGH     CLEAR     25   7  46 W18       30.02R WCI  11
INDIANA*       CLOUDY    25  10  54 W13G20    30.02S WCI  13
LATROBE        CLEAR     27  10  50 SW8       30.03R
WASHINGTON CO* CLEAR     25   9  50 W7        30.05S
$$

PAZ004>006-010>012-017>019-024>028-033>037-041-042-045-046-049>053-210000-
CENTRAL PENNSYLVANIA

CITY           SKY/WX    TMP DP  RH WIND       PRES   REMARKS
BRADFORD       MOCLDY    19   9  65 SW10G21   29.88R WCI   7
DUBOIS         CLOUDY    22   9  57 W16G22    29.93R WCI   8
CLEARFIELD     MOCLDY    22   8  55 W8        29.96R WCI  12
JOHNSTOWN      CLEAR     21   8  57 W9        29.92R WCI  11
ALTOONA        CLEAR     26  12  55 W14G22    29.97R WCI  14
STATE COLLEGE  CLEAR     25   9  50 W8        29.97R
WILLIAMSPORT   CLEAR     29   7  39 W20G29    29.97R
SELINSGROVE    CLEAR     30  10  43 W8G18     30.01R
FT INDIANTOWN  CLEAR     34  10  36 W14       29.98R
CAPITAL CITY   CLEAR     35  13  40 NW8       29.99R
HARRISBURG     CLEAR     35  14  42 NW12      29.99R
YORK           CLEAR     35  17  47 NW9       29.98R
$$

PAZ038>040-043-044-047-048-054-055-060>062-067>071-210000-
EASTERN PENNSYLVANIA

CITY           SKY/WX    TMP DP  RH WIND       PRES   REMARKS
SCRANTON       CLEAR     30   9  41 W15G24    29.91R
MOUNT POCONO   FAIR      27  11  51 W13G21    29.84R
ALLENTOWN      CLEAR     36  12  37 W14G21    29.92R
QUAKERTOWN*    CLEAR     36  16  44 W7        29.93R
READING        CLEAR     36  13  38 NW16      29.95R
LANCASTER      CLEAR     34  15  46 W10       29.96R
COATESVILLE    CLEAR     36  18  48 NW13      29.95R
POTTSTOWN      CLEAR     35  16  45 W6        29.96R
BLUE BELL      CLEAR     39  19  45 NW3       29.94R
DOYLESTOWN     CLEAR     36  17  46 NW7       29.92R
WILLOW GROVE   NOT AVBL
NORTH PHILA    CLEAR     43  18  36 NW12      29.95R
PHILADELPHIA   PTCLDY    44  19  36 NW12      29.95R
$$



USA.gov is the U.S. government's official web portal to all federal, state and local government web resources and services.